When you browse on this site, cookies collect data to enhance your experience and personalize the content and advertising you see.
Visit our Privacy Policy to learn more. By continuing to use the site, you agree to this use of cookies and data.
  • In Schweiz
  • Länderverzeichnis
  • Für 7 Tage
  • Wassertemperatur
  • Wetterkarte
  • Widgets
  • user-avatar
    Anmelden

    Stündliche Wetter Shalon-an-Shampan

    Heute, 18 November, Montag

    Zeit Temperatur Niederschläge Wind Luftdruck Luftfeuchtigkeit
    00:00 +1°C° 0 mm 3 m/S 749 mmHg 90%
    01:00 +1°C° 0 mm 3 m/S 749 mmHg 90%
    02:00 +1°C° 0 mm 3 m/S 748 mmHg 90%
    03:00 +1°C° 0 mm 3 m/S 748 mmHg 90%
    04:00 +1°C° 0.1 mm 3 m/S 749 mmHg 90%
    05:00 +1°C° 0.1 mm 3 m/S 749 mmHg 91%
    06:00 +2°C° 0.1 mm 3 m/S 749 mmHg 91%
    07:00 +2°C° 0.2 mm 3 m/S 750 mmHg 91%
    08:00 +2°C° 0.2 mm 3 m/S 750 mmHg 91%
    09:00 +2°C° 0.2 mm 3 m/S 750 mmHg 90%
    10:00 +3°C° 0.9 mm 3 m/S 750 mmHg 92%
    11:00 +3°C° 0.9 mm 3 m/S 750 mmHg 93%
    12:00 +3°C° 0.9 mm 3 m/S 750 mmHg 94%
    13:00 +4°C° 0.6 mm 3 m/S 750 mmHg 93%
    14:00 +4°C° 0.6 mm 3 m/S 750 mmHg 93%
    15:00 +4°C° 0.6 mm 4 m/S 750 mmHg 93%
    16:00 +5°C° 0.4 mm 4 m/S 751 mmHg 93%
    17:00 +5°C° 0.4 mm 4 m/S 751 mmHg 94%
    18:00 +5°C° 0.4 mm 4 m/S 751 mmHg 95%
    19:00 +5°C° 0.1 mm 4 m/S 751 mmHg 94%
    20:00 +5°C° 0.1 mm 4 m/S 751 mmHg 93%
    21:00 +5°C° 0.1 mm 4 m/S 752 mmHg 91%
    22:00 +4°C° 0 mm 4 m/S 752 mmHg 92%
    23:00 +4°C° 0 mm 3 m/S 752 mmHg 92%

    Morgen, 19 November, Dienstag

    Zeit Temperatur Niederschläge Wind Luftdruck Luftfeuchtigkeit
    00:00 +4°C° 0 mm 3 m/S 752 mmHg 93%
    01:00 +4°C° 0 mm 3 m/S 752 mmHg 92%
    02:00 +5°C° 0 mm 2 m/S 752 mmHg 92%
    03:00 +5°C° 0 mm 2 m/S 752 mmHg 91%
    04:00 +4°C° 0.1 mm 2 m/S 752 mmHg 91%
    05:00 +5°C° 0.1 mm 1 m/S 753 mmHg 91%
    06:00 +5°C° 0.1 mm 1 m/S 753 mmHg 90%
    07:00 +5°C° 0 mm 1 m/S 753 mmHg 88%
    08:00 +5°C° 0 mm 1 m/S 754 mmHg 87%
    09:00 +6°C° 0 mm 1 m/S 754 mmHg 85%
    10:00 +6°C° 0 mm 1 m/S 754 mmHg 80%
    11:00 +7°C° 0 mm 1 m/S 754 mmHg 74%
    12:00 +8°C° 0 mm 1 m/S 754 mmHg 69%
    13:00 +8°C° 0 mm 1 m/S 754 mmHg 70%
    14:00 +8°C° 0 mm 1 m/S 754 mmHg 72%
    15:00 +7°C° 0 mm 1 m/S 754 mmHg 73%
    16:00 +7°C° 0 mm 1 m/S 754 mmHg 75%
    17:00 +6°C° 0 mm 1 m/S 754 mmHg 76%
    18:00 +5°C° 0 mm 1 m/S 754 mmHg 78%
    19:00 +4°C° 0 mm 1 m/S 754 mmHg 79%
    20:00 +4°C° 0 mm 1 m/S 754 mmHg 81%
    21:00 +4°C° 0 mm 1 m/S 754 mmHg 82%
    22:00 +3°C° 0 mm 1 m/S 754 mmHg 84%
    23:00 +3°C° 0 mm 1 m/S 754 mmHg 86%

    übermorgen, 20 November, Mittwoch

    Zeit Temperatur Niederschläge Wind Luftdruck Luftfeuchtigkeit
    00:00 +2°C° 0 mm 1 m/S 754 mmHg 88%
    01:00 +2°C° 0 mm 1 m/S 754 mmHg 88%
    02:00 +2°C° 0 mm 1 m/S 754 mmHg 88%
    03:00 +2°C° 0 mm 1 m/S 753 mmHg 88%
    04:00 +2°C° 0 mm 1 m/S 753 mmHg 88%
    05:00 +2°C° 0 mm 1 m/S 753 mmHg 88%
    06:00 +1°C° 0 mm 2 m/S 753 mmHg 88%
    07:00 +1°C° 0 mm 2 m/S 753 mmHg 88%
    08:00 +2°C° 0 mm 2 m/S 753 mmHg 87%
    09:00 +3°C° 0 mm 2 m/S 753 mmHg 87%
    10:00 +3°C° 0 mm 3 m/S 752 mmHg 84%
    11:00 +4°C° 0 mm 3 m/S 752 mmHg 82%
    12:00 +5°C° 0 mm 4 m/S 752 mmHg 79%
    13:00 +5°C° 0 mm 3 m/S 751 mmHg 82%
    14:00 +5°C° 0 mm 3 m/S 751 mmHg 85%
    15:00 +4°C° 0 mm 3 m/S 750 mmHg 87%
    16:00 +4°C° 0 mm 3 m/S 750 mmHg 89%
    17:00 +3°C° 0 mm 3 m/S 750 mmHg 91%
    18:00 +2°C° 0 mm 3 m/S 750 mmHg 93%
    19:00 +2°C° 0 mm 3 m/S 750 mmHg 93%
    20:00 +2°C° 0 mm 3 m/S 750 mmHg 93%
    21:00 +2°C° 0 mm 3 m/S 750 mmHg 93%
    22:00 +2°C° 0 mm 3 m/S 750 mmHg 91%
    23:00 +3°C° 0 mm 3 m/S 749 mmHg 89%

    21 November, Donnerstag

    Zeit Temperatur Niederschläge Wind Luftdruck Luftfeuchtigkeit
    00:00 +3°C° 0 mm 3 m/S 749 mmHg 87%
    01:00 +3°C° 0 mm 3 m/S 749 mmHg 86%
    02:00 +3°C° 0 mm 4 m/S 748 mmHg 86%
    03:00 +4°C° 0 mm 4 m/S 748 mmHg 85%
    04:00 +4°C° 0 mm 4 m/S 748 mmHg 86%
    05:00 +4°C° 0 mm 4 m/S 748 mmHg 87%
    06:00 +4°C° 0 mm 4 m/S 748 mmHg 88%
    07:00 +5°C° 0 mm 4 m/S 748 mmHg 86%
    08:00 +5°C° 0 mm 5 m/S 748 mmHg 84%
    09:00 +6°C° 0 mm 5 m/S 748 mmHg 81%
    10:00 +7°C° 0 mm 6 m/S 748 mmHg 78%
    11:00 +9°C° 0 mm 7 m/S 747 mmHg 74%
    12:00 +10°C° 0 mm 7 m/S 747 mmHg 71%
    13:00 +9°C° 0 mm 7 m/S 747 mmHg 73%
    14:00 +9°C° 0 mm 6 m/S 747 mmHg 75%
    15:00 +8°C° 0 mm 6 m/S 746 mmHg 77%
    16:00 +8°C° 0 mm 5 m/S 746 mmHg 80%
    17:00 +7°C° 0 mm 5 m/S 746 mmHg 83%
    18:00 +6°C° 0 mm 5 m/S 747 mmHg 85%
    19:00 +7°C° 0.4 mm 5 m/S 747 mmHg 87%
    20:00 +7°C° 0.4 mm 4 m/S 747 mmHg 89%
    21:00 +7°C° 0.4 mm 4 m/S 747 mmHg 91%
    22:00 +7°C° 0.7 mm 4 m/S 747 mmHg 92%
    23:00 +7°C° 0.7 mm 4 m/S 747 mmHg 93%

    22 November, Freitag

    Zeit Temperatur Niederschläge Wind Luftdruck Luftfeuchtigkeit
    00:00 +7°C° 0.7 mm 4 m/S 747 mmHg 94%
    01:00 +7°C° 0.4 mm 4 m/S 747 mmHg 95%
    02:00 +7°C° 0.4 mm 4 m/S 747 mmHg 95%
    03:00 +7°C° 0.4 mm 4 m/S 747 mmHg 95%
    04:00 +8°C° 0.1 mm 3 m/S 747 mmHg 96%
    05:00 +8°C° 0.1 mm 3 m/S 747 mmHg 96%
    06:00 +8°C° 0.1 mm 3 m/S 748 mmHg 96%
    07:00 +8°C° 0.3 mm 3 m/S 748 mmHg 95%
    08:00 +7°C° 0.3 mm 4 m/S 748 mmHg 94%
    09:00 +7°C° 0.3 mm 4 m/S 748 mmHg 93%
    10:00 +7°C° 0.6 mm 4 m/S 747 mmHg 91%
    11:00 +7°C° 0.6 mm 4 m/S 747 mmHg 90%
    12:00 +8°C° 0.6 mm 3 m/S 747 mmHg 89%
    13:00 +7°C° 1.2 mm 4 m/S 746 mmHg 89%
    14:00 +7°C° 1.2 mm 4 m/S 746 mmHg 89%
    15:00 +7°C° 1.2 mm 5 m/S 745 mmHg 90%
    16:00 +7°C° 1.5 mm 5 m/S 745 mmHg 88%
    17:00 +7°C° 1.5 mm 5 m/S 744 mmHg 87%
    18:00 +7°C° 1.5 mm 6 m/S 744 mmHg 86%
    19:00 +7°C° 0.8 mm 5 m/S 744 mmHg 86%
    20:00 +6°C° 0.8 mm 5 m/S 744 mmHg 86%
    21:00 +6°C° 0.8 mm 5 m/S 743 mmHg 87%
    22:00 +6°C° 0.4 mm 5 m/S 743 mmHg 85%
    23:00 +7°C° 0.4 mm 5 m/S 743 mmHg 84%

    23 November, Samstag

    Zeit Temperatur Niederschläge Wind Luftdruck Luftfeuchtigkeit
    00:00 +7°C° 0.4 mm 5 m/S 743 mmHg 83%
    01:00 +7°C° 0 mm 4 m/S 743 mmHg 86%
    02:00 +7°C° 0 mm 3 m/S 742 mmHg 89%
    03:00 +7°C° 0 mm 2 m/S 742 mmHg 92%
    04:00 +7°C° 0 mm 2 m/S 742 mmHg 92%
    05:00 +7°C° 0 mm 2 m/S 743 mmHg 92%
    06:00 +8°C° 0 mm 2 m/S 743 mmHg 92%
    07:00 +8°C° 0 mm 2 m/S 743 mmHg 90%
    08:00 +8°C° 0 mm 2 m/S 744 mmHg 89%
    09:00 +8°C° 0 mm 2 m/S 744 mmHg 87%
    10:00 +9°C° 0 mm 3 m/S 744 mmHg 85%
    11:00 +10°C° 0 mm 3 m/S 744 mmHg 83%
    12:00 +10°C° 0 mm 3 m/S 745 mmHg 81%
    13:00 +10°C° 0 mm 2 m/S 745 mmHg 83%
    14:00 +10°C° 0 mm 2 m/S 745 mmHg 85%
    15:00 +11°C° 0 mm 1 m/S 745 mmHg 87%
    16:00 +10°C° 0 mm 1 m/S 746 mmHg 89%
    17:00 +9°C° 0 mm 2 m/S 746 mmHg 91%
    18:00 +8°C° 0 mm 2 m/S 747 mmHg 93%
    19:00 +8°C° 0 mm 2 m/S 747 mmHg 93%
    20:00 +7°C° 0 mm 2 m/S 748 mmHg 94%
    21:00 +7°C° 0 mm 2 m/S 748 mmHg 94%
    22:00 +7°C° 0 mm 2 m/S 749 mmHg 94%
    23:00 +7°C° 0 mm 2 m/S 749 mmHg 93%
    Mehr zeigen